CAPE
0 0 0 0 0 0 0 0 0 0 0 0 0 0 0 0 0 0 0 0 2 6 5 2 1 3 6 8 13 15 16 10 14 14 8 30 10 12 29 61 55 56 44
0 0 0 0 0 0 0 0 0 0 0 0 0 0 0 0 0 0 0 0 0 0 0 0 1 0 3 7 9 13 15 15 13 11 11 14 9 11 9 24 66 46 30
0 0 0 0 0 0 0 0 0 0 0 0 0 0 0 0 0 0 0 0 0 0 0 0 0 0 0 2 6 13 10 12 13 12 12 7 20 6 9 1 38 43 29
0 0 0 0 0 0 0 0 0 0 0 0 0 0 0 0 0 0 0 0 0 0 0 0 0 0 0 0 1 5 10 11 11 13 10 14 11 16 19 16 12 14 13
0 0 0 0 0 0 0 0 0 0 0 0 0 0 0 0 0 0 0 0 0 0 0 0 0 0 0 0 0 5 9 10 11 14 13 14 15 18 8 17 12 5 16
0 0 0 0 0 0 0 0 0 0 0 0 0 0 0 0 0 0 0 0 0 0 0 0 0 0 0 0 0 0 3 8 8 10 9 21 16 16 11 26 35 55 36
0 0 0 0 0 0 0 0 0 0 0 0 0 0 0 0 0 0 0 0 0 0 0 0 0 0 0 0 0 0 1 5 7 13 14 12 30 37 50 49 29 36 66
0 0 0 0 0 0 0 0 0 0 0 0 0 0 0 0 0 0 0 0 0 0 0 0 0 0 0 0 0 0 0 0 7 17 29 25 34 30 39 55 45 61 57
0 0 0 0 0 0 0 0 0 0 0 0 0 0 0 0 0 0 0 0 0 0 0 0 0 0 0 0 0 0 0 0 0 7 13 16 21 30 29 44 62 68 59
0 0 0 0 0 0 0 0 0 0 0 0 0 0 0 0 0 0 0 0 0 0 0 0 0 0 0 0 0 0 0 0 0 3 10 13 19 28 27 45 54 57 58
0 0 0 0 0 0 0 0 0 0 0 0 0 0 0 0 0 0 0 0 0 0 0 0 0 0 0 0 0 0 0 0 0 1 3 10 23 32 43 41 42 52 40
0 0 0 0 0 0 0 0 0 0 0 0 0 0 0 0 0 0 0 0 0 0 0 0 0 0 0 0 0 0 0 0 0 0 3 9 20 29 29 28 25 37 34
0 0 0 0 0 0 0 0 0 0 0 0 0 0 0 0 0 0 0 0 0 0 0 0 0 0 0 0 0 0 0 0 0 0 6 12 15 18 19 18 22 27 34
0 0 0 0 0 0 0 0 0 0 0 0 0 0 0 0 0 0 0 0 0 0 0 0 0 0 0 0 0 0 0 0 0 4 9 9 3 3 10 13 18 23 27
0 0 0 0 0 0 0 0 0 0 0 0 0 0 0 0 0 0 0 0 0 0 0 0 0 0 0 0 0 0 0 0 0 0 0 1 1 3 7 14 13 17 24
0 0 0 0 0 0 0 0 0 0 0 0 0 0 0 0 0 0 0 0 0 0 0 0 0 0 0 0 0 0 0 0 0 0 0 0 3 8 7 4 6 14 19
0 0 0 0 0 0 0 0 0 0 0 0 0 0 0 0 0 0 0 0 0 0 0 0 0 0 0 0 0 0 0 0 0 0 0 0 1 6 15 20 17 16 4
0 0 0 0 0 0 0 0 0 0 0 0 0 0 0 0 0 0 0 0 0 0 0 0 0 0 0 0 0 0 0 0 0 0 0 0 0 0 7 23 40 19 3
0 0 0 0 0 0 0 0 0 0 0 0 0 0 0 0 0 0 0 0 0 0 0 0 0 0 0 0 0 0 0 0 0 0 0 0 0 0 3 18 5 5 4
0 0 0 0 0 0 0 0 0 0 0 0 0 0 0 0 0 0 0 0 0 0 0 0 0 0 0 0 0 0 0 0 0 0 0 0 0 0 0 1 1 2 1
0 0 0 0 0 0 0 0 0 0 0 0 0 0 0 0 0 0 0 0 0 0 0 0 0 0 0 0 0 0 0 0 0 0 0 0 0 0 0 0 0 0 8
0 0 0 0 0 0 0 0 0 0 0 0 0 0 0 0 0 0 0 0 0 0 0 0 0 0 0 0 0 0 0 0 2 0 0 0 0 0 0 0 0 6 1
0 0 0 0 0 0 0 0 0 0 0 0 0 0 0 0 0 0 0 0 0 0 0 0 0 0 0 0 0 0 0 0 0 0 0 0 0 0 0 0 0 0 2
0 0 0 0 0 0 0 0 0 0 0 0 0 0 0 0 0 0 0 0 0 0 0 0 0 0 0 0 0 0 0 1 0 0 0 0 0 0 0 0 0 0 0
0 0 0 0 0 0 0 0 0 0 0 0 0 0 0 0 0 0 0 0 0 0 0 0 0 14 20 46 34 0 0 0 1 0 0 0 0 0 0 0 0 0 0
0 0 0 0 0 0 0 0 0 0 0 0 0 0 0 0 1 4 1 0 0 0 0 0 0 0 0 0 3 0 0 0 3 0 0 0 1 0 3 0 0 0 0
CIN
-0 -0 -0 -0 -0 -0 -0 -0 -0 -0 -0 -0 -0 -0 -0 -0 -0 -0 -0 -0 -0 -0 -0 -0 -0 -0 -0 -0 -0 -0 -0 -0 -0 -0 -0 -0 -0 -0 -0 -0 -0 -0 -0
-0 -0 -0 -0 -0 -0 -0 -0 -0 -0 -0 -0 -0 -0 -0 -0 -0 -0 -0 -0 -0 -0 -0 -0 -0 -0 -0 -0 -0 -0 -0 -0 -0 -0 -0 -1 -0 -0 -0 -0 -0 -0 -0
-0 -0 -0 -0 -0 -0 -0 -0 -0 -0 -0 -0 -0 -0 -0 -0 -0 -0 -0 -0 -0 -0 -0 -0 -0 -0 -0 -0 -0 -0 -0 -0 -0 -0 -0 -1 -0 -0 -0 -0 -0 -0 -0
-0 -0 -0 -0 -0 -0 -0 -0 -0 -0 -0 -0 -0 -0 -0 -0 -0 -0 -0 -0 -0 -0 -0 -0 -0 -0 -0 -0 -0 -0 -0 -0 -0 -0 -0 -0 -0 -0 -0 -0 -0 -0 -0
-0 -0 -0 -0 -0 -0 -0 -0 -0 -0 -0 -0 -0 -0 -0 -0 -0 -0 -0 -0 -0 -0 -0 -0 -0 -0 -0 -0 -0 -0 -0 -0 -0 -0 -0 -0 -0 -0 -0 -0 -0 -0 -0
-0 -0 -0 -0 -0 -0 -0 -0 -0 -0 -0 -0 -0 -0 -0 -0 -0 -0 -0 -0 -0 -0 -0 -0 -0 -0 -0 -0 -0 -0 -0 -0 -0 -0 -0 -0 -1 -0 -0 -0 -0 -0 -0
-0 -0 -0 -0 -0 -0 -0 -0 -0 -0 -0 -0 -0 -0 -0 -0 -0 -0 -0 -0 -0 -0 -0 -0 -0 -0 -0 -0 -0 -0 -0 -0 -0 -0 -0 -0 -0 -0 -0 -0 -1 -0 -0
-0 -0 -0 -0 -0 -0 -0 -0 -0 -0 -0 -0 -0 -0 -0 -0 -0 -0 -0 -0 -0 -0 -0 -0 -0 -0 -0 -0 -0 -0 -0 -0 -0 -0 -0 -0 -0 -0 -0 -0 -0 -0 -0
-0 -0 -0 -0 -0 -0 -0 -0 -0 -0 -0 -0 -0 -0 -0 -0 -0 -0 -0 -0 -0 -0 -0 -0 -0 -0 -0 -0 -0 -0 -0 -0 -0 -0 -0 -0 -0 -0 -0 -0 -0 -0 -0
-0 -0 -0 -0 -0 -0 -0 -0 -0 -0 -0 -0 -0 -0 -0 -0 -0 -0 -0 -0 -0 -0 -0 -0 -0 -0 -0 -0 -0 -0 -0 -0 -0 -0 -0 -0 -0 -0 -0 -0 -0 -0 -0
-0 -0 -0 -0 -0 -0 -0 -0 -0 -0 -0 -0 -0 -0 -0 -0 -0 -0 -0 -0 -0 -0 -0 -0 -0 -0 -0 -0 -0 -0 -0 -0 -0 -0 -0 -0 -0 -0 -0 -0 -0 -0 -0
-0 -0 -0 -0 -0 -0 -0 -0 -0 -0 -0 -0 -0 -0 -0 -0 -0 -0 -0 -0 -0 -0 -0 -0 -0 -0 -0 -0 -0 -0 -0 -0 -0 -0 -0 -0 -0 -0 -0 -0 -0 -0 -0
-0 -0 -0 -0 -0 -0 -0 -0 -0 -0 -0 -0 -0 -0 -0 -0 -0 -0 -0 -0 -0 -0 -0 -0 -0 -0 -0 -0 -0 -0 -0 -0 -0 -0 -0 -0 -0 -0 -0 -0 -0 -0 -0
-0 -0 -0 -0 -0 -0 -0 -0 -0 -0 -0 -0 -0 -0 -0 -0 -0 -0 -0 -0 -0 -0 -0 -0 -0 -0 -0 -0 -0 -0 -0 -0 -0 -0 -0 -0 -0 -0 -0 -0 -0 -0 -0
-0 -0 -0 -0 -0 -0 -0 -0 -0 -0 -0 -0 -0 -0 -0 -0 -0 -0 -0 -0 -0 -0 -0 -0 -0 -0 -0 -0 -0 -0 -0 -0 -0 -0 -0 -0 -0 -0 -0 -0 -0 -0 -0
-0 -0 -0 -0 -0 -0 -0 -0 -0 -0 -0 -0 -0 -0 -0 -0 -0 -0 -0 -0 -0 -0 -0 -0 -0 -0 -0 -0 -0 -0 -0 -0 -0 -0 -0 -0 -0 -0 -0 -0 -0 -0 -0
-0 -0 -0 -0 -0 -0 -0 -0 -0 -0 -0 -0 -0 -0 -0 -0 -0 -0 -0 -0 -0 -0 -0 -0 -0 -0 -0 -0 -0 -0 -0 -0 -0 -0 -0 -0 -0 -0 -0 -0 -0 -0 -0
-0 -0 -0 -0 -0 -0 -0 -0 -0 -0 -0 -0 -0 -0 -0 -0 -0 -0 -0 -0 -0 -0 -0 -0 -0 -0 -0 -0 -0 -0 -0 -0 -0 -0 -0 -0 -0 -0 -0 -0 -0 -0 -0
-0 -0 -0 -0 -0 -0 -0 -0 -0 -0 -0 -0 -0 -0 -0 -0 -0 -0 -0 -0 -0 -0 -0 -0 -0 -0 -0 -0 -0 -0 -0 -0 -0 -0 -0 -0 -0 -0 -0 -0 -0 -0 -0
-0 -0 -0 -0 -0 -0 -0 -0 -0 -0 -0 -0 -0 -0 -0 -0 -0 -0 -0 -0 -0 -0 -0 -0 -0 -0 -0 -0 -0 -0 -0 -0 -0 -0 -0 -0 -0 -0 -0 -0 -0 -0 -0
-0 -0 -0 -0 -0 -0 -0 -0 -0 -0 -0 -0 -0 -0 -0 -0 -0 -0 -0 -0 -0 -0 -0 -0 -0 -0 -0 -0 -0 -0 -0 -0 -0 -0 -0 -0 -0 -0 -0 -0 -0 -0 -0
-0 -0 -0 -0 -0 -0 -0 -0 -0 -0 -0 -0 -0 -0 -0 -0 -0 -0 -0 -0 -0 -0 -0 -0 -0 -0 -0 -0 -0 -0 -0 -0 -0 -0 -0 -0 -0 -0 -0 -0 -0 -0 -0
-0 -0 -0 -0 -0 -0 -0 -0 -0 -0 -0 -0 -0 -0 -0 -0 -0 -0 -0 -0 -0 -0 -0 -0 -0 -0 -0 -0 -0 -0 -0 -0 -10 -0 -0 -0 -0 -0 -0 -0 -0 -0 -0
-0 -0 -0 -0 -0 -0 -0 -0 -0 -0 -0 -0 -0 -0 -0 -0 -0 -0 -0 -0 -0 -0 -0 -0 -0 -0 -0 -0 -0 -0 -0 -16 -0 -0 -0 -0 -0 -0 -0 -0 -0 -0 -0
-0 -0 -0 -0 -0 -0 -0 -0 -0 -0 -0 -0 -0 -0 -0 -0 -0 -0 -0 -0 -0 -0 -0 -0 -0 -5 -1 -0 -1 -0 -0 -0 -0 -0 -0 -0 -4 -0 -0 -0 -0 -0 -0
-0 -0 -0 -0 -0 -0 -0 -0 -0 -0 -0 -0 -0 -0 -0 -0 -0 -0 -2 -0 -0 -0 -0 -0 -0 -0 -0 -0 -10 -0 -0 -0 -13 -0 -0 -0 -5 -0 -3 -0 -0 -0 -0
Wind_Speed
4 4 4 4 4 4 4 5 5 5 5 5 5 5 5 5 5 3 3 9 10 11 12 13 13 12 14 13 12 13 12 12 12 13 12 14 14 13 15 15 12 12 13
5 4 4 4 4 4 4 4 5 5 4 4 5 5 4 4 4 4 3 3 9 9 11 13 13 12 13 14 13 12 14 12 11 12 13 12 13 14 13 14 16 11 13
6 6 4 4 4 4 6 5 5 4 5 3 6 5 4 4 4 4 3 3 5 12 14 15 14 13 14 15 14 14 13 13 11 11 12 11 12 13 13 14 14 10 13
7 6 5 4 4 4 4 4 4 4 4 4 3 3 4 4 5 5 4 4 4 4 9 16 15 14 14 15 14 14 13 13 11 10 10 11 11 12 12 14 13 12 12
7 6 4 4 4 4 4 3 3 3 3 3 4 4 4 4 4 4 6 6 6 5 4 12 15 15 15 14 14 13 14 14 13 11 9 10 12 12 13 12 12 13 13
6 6 5 5 5 4 4 3 4 4 4 4 5 5 4 4 4 5 5 5 5 6 5 6 5 6 16 15 14 14 14 14 14 13 12 11 11 12 13 13 14 14 13
6 6 4 5 4 4 4 4 3 5 5 1 4 3 4 5 6 5 4 4 5 5 6 5 4 5 5 16 17 15 13 13 13 13 12 12 14 15 15 13 12 14 16
6 6 6 5 6 5 5 3 3 3 4 3 4 3 2 2 3 3 3 4 5 3 5 6 6 6 5 4 11 18 18 17 16 17 17 15 15 15 15 18 18 16 17
6 7 6 6 6 4 4 4 5 6 4 4 5 5 3 3 1 1 1 2 5 4 3 5 5 5 5 4 7 9 17 17 17 17 17 17 18 19 19 17 18 20 17
6 6 6 6 6 4 5 3 3 4 5 5 2 5 5 3 3 1 1 1 3 6 5 4 5 5 6 5 9 13 17 18 18 17 18 19 19 20 19 21 20 21 23
5 6 6 6 6 4 5 6 5 6 3 4 3 2 4 4 4 3 2 4 4 3 3 3 3 4 5 5 5 9 18 18 18 19 19 19 19 19 20 19 20 21 20
4 5 6 6 5 5 5 6 6 7 6 5 4 4 3 3 2 3 1 2 2 3 4 2 3 4 4 4 9 16 18 18 19 19 19 19 18 19 20 21 21 22 23
3 5 6 5 4 5 5 5 7 6 5 5 5 4 4 4 2 2 2 2 1 3 2 3 1 2 3 4 5 13 15 19 19 19 18 19 19 20 20 20 21 21 21
6 6 7 6 6 6 7 5 5 6 7 5 7 6 4 4 3 2 2 1 3 2 2 3 1 1 2 3 7 13 6 16 18 17 19 19 20 20 20 20 21 21 21
6 7 8 6 5 8 6 6 4 6 6 5 6 6 4 3 3 3 2 2 3 3 3 4 3 5 5 5 9 5 5 13 18 18 18 18 19 20 20 20 21 21 21
9 9 9 9 7 7 6 5 5 5 7 5 4 6 3 2 3 2 1 1 1 3 3 3 3 4 5 5 8 6 8 15 18 20 18 19 18 19 19 20 19 19 20
10 9 8 7 7 7 6 5 6 6 8 6 4 4 3 1 1 1 0 1 2 2 4 3 3 3 3 5 6 5 5 5 6 20 23 22 21 20 20 19 19 18 21
8 9 8 8 7 7 5 6 6 6 6 5 3 2 1 1 3 2 2 3 3 3 3 5 3 3 5 5 5 5 5 5 5 13 18 21 22 22 20 19 18 21 23
9 8 8 9 7 6 5 5 6 6 5 3 1 1 2 2 3 2 2 3 2 3 3 4 4 3 4 3 3 3 4 5 6 14 16 19 20 20 21 21 23 21 20
10 9 7 7 6 6 6 5 5 5 4 1 2 2 4 4 5 5 4 5 4 4 4 4 4 3 4 5 2 3 4 2 5 6 12 13 15 19 20 21 20 20 19
8 9 9 7 6 5 4 5 5 4 2 3 3 3 4 6 10 9 4 5 4 3 4 4 5 2 4 3 4 3 3 4 4 5 4 4 6 7 7 14 15 17 20
9 7 7 8 7 3 7 7 6 3 0 2 4 5 4 7 7 11 13 15 10 4 5 3 3 5 6 4 3 3 3 3 8 2 2 9 3 6 7 7 17 22 27
6 7 7 7 6 3 6 6 5 3 0 2 3 4 5 4 8 5 10 13 12 16 15 6 5 6 5 5 3 4 4 4 7 5 2 9 3 7 6 7 17 24 22
7 5 6 6 5 2 4 5 5 3 2 3 4 5 4 6 7 8 6 6 7 7 9 6 6 8 8 8 6 7 8 5 3 4 3 7 4 8 5 7 17 19 18
5 4 5 4 3 2 5 6 5 3 1 4 4 5 5 5 12 16 7 5 6 8 11 17 18 17 18 18 14 3 4 4 7 4 4 3 2 6 5 9 6 11 22
6 5 5 4 3 3 6 5 4 1 2 2 4 4 9 10 15 16 9 5 7 8 8 8 6 8 10 9 15 6 4 7 5 3 2 2 4 2 6 4 3 5 6
Wind_Direction
131 124 112 108 100 99 98 94 92 87 81 83 85 104 97 92 83 72 42 56 54 56 52 46 45 39 34 30 23 25 28 14 21 15 13 13 6 1 2 7 9 15 10
135 125 120 112 103 103 96 99 96 93 84 93 84 85 107 92 85 71 57 31 55 48 46 42 34 36 29 25 24 19 19 14 15 13 7 13 11 1 357 357 352 4 6
140 131 128 118 121 110 108 96 78 78 93 77 82 84 98 96 83 69 44 46 36 35 33 31 30 31 25 21 17 15 19 19 13 10 4 11 12 360 355 351 353 12 9
137 136 130 130 138 116 115 112 106 78 80 87 95 64 81 86 90 72 60 55 47 39 32 37 33 31 23 14 17 15 21 17 13 9 2 358 2 351 356 351 346 350 351
149 137 131 127 122 105 98 106 71 107 96 88 98 80 68 65 70 70 62 59 60 53 42 33 34 22 16 19 22 24 21 18 16 7 4 356 355 346 346 348 343 339 338
137 124 121 128 128 116 115 101 103 70 109 100 84 69 48 34 73 77 73 67 53 46 40 37 20 6 19 23 24 23 16 13 15 8 2 351 338 337 337 333 331 329 329
134 132 121 117 106 106 126 128 99 78 52 65 109 70 53 41 53 56 58 56 51 35 38 36 23 19 14 33 31 28 19 6 2 1 357 359 348 342 332 321 314 318 321
133 127 129 123 119 114 104 114 118 109 85 22 118 89 99 11 29 30 40 49 37 20 33 29 27 24 19 13 20 18 15 5 1 353 350 347 342 335 331 327 326 318 311
139 135 131 125 120 112 114 118 121 117 123 22 50 134 126 187 141 316 46 49 24 33 28 12 27 27 15 19 15 6 10 2 355 347 343 340 334 329 326 325 329 326 333
121 120 121 125 124 121 111 99 98 107 117 129 59 41 56 118 142 23 330 336 345 28 11 356 8 15 19 5 8 4 3 354 347 343 341 335 329 325 325 333 327 326 331
113 119 119 118 114 109 106 104 77 71 76 92 96 123 65 59 55 101 280 321 10 2 349 355 359 19 5 0 349 351 354 350 345 340 333 331 330 330 333 333 332 328 328
108 98 100 102 102 103 113 114 101 84 80 86 83 64 86 101 75 72 36 310 266 296 317 336 28 23 0 358 355 355 352 350 344 336 333 331 336 337 334 327 320 321 318
104 103 100 99 100 113 103 79 92 97 88 90 89 77 66 63 66 84 84 314 313 300 314 310 53 10 347 351 343 349 345 346 342 336 333 335 337 333 327 323 320 317 317
121 122 114 100 113 101 87 100 96 92 87 79 81 79 86 71 67 77 105 114 323 306 319 274 278 319 284 319 326 341 325 342 342 338 332 333 331 327 324 322 322 321 320
120 111 105 114 114 114 117 103 101 100 97 85 79 75 80 68 63 69 86 154 173 290 286 315 305 342 326 323 316 326 317 328 338 335 333 330 329 325 324 323 321 318 316
140 146 150 135 122 104 104 112 107 97 95 86 83 83 68 59 68 54 39 286 219 211 253 235 267 277 295 308 304 324 318 333 330 331 328 323 319 319 319 319 319 321 325
145 137 131 120 107 101 111 110 105 105 94 97 93 90 87 85 44 26 275 251 246 203 243 274 258 277 282 279 288 289 299 301 312 321 325 325 323 321 313 312 310 320 319
125 127 120 114 109 110 130 116 98 96 111 112 99 75 58 17 320 286 256 266 235 235 223 277 254 265 244 269 258 282 292 303 298 306 314 319 317 318 318 311 310 317 314
115 112 120 118 122 130 109 93 98 96 103 110 135 279 285 267 286 257 256 286 271 278 258 241 271 252 260 265 292 293 283 292 290 305 311 311 316 318 319 318 319 313 315
130 128 120 115 117 115 106 100 97 89 70 47 288 274 269 254 260 278 271 264 254 256 262 266 280 271 261 278 256 262 287 266 292 295 300 299 321 314 314 319 315 314 314
132 115 122 111 107 104 112 101 87 78 39 322 298 276 266 269 274 272 259 255 253 260 280 275 290 272 266 280 259 256 264 270 274 260 282 293 298 302 303 311 307 308 315
115 124 108 108 100 101 99 86 93 88 225 267 302 315 296 299 302 307 307 304 283 240 242 253 252 275 270 250 250 253 261 290 317 232 294 297 286 289 294 296 303 314 314
122 112 112 115 109 111 98 89 84 122 25 314 298 297 309 307 319 301 303 307 298 289 284 261 240 244 259 247 235 261 251 231 276 281 271 285 252 280 278 281 298 311 316
116 131 116 117 126 110 57 50 44 71 20 311 294 292 281 292 293 295 269 270 271 273 277 269 232 249 244 259 231 249 265 269 284 259 229 276 288 286 291 285 292 307 314
124 105 108 111 100 61 28 26 34 33 316 309 298 301 276 278 295 309 303 283 270 271 284 286 280 274 281 285 291 259 274 266 291 255 233 247 288 301 284 288 280 303 315
113 112 113 100 66 43 15 5 357 104 288 291 312 291 300 300 311 316 311 286 289 282 273 279 280 283 288 283 288 265 245 257 264 288 232 243 289 335 303 262 299 292 291